Find Starlink 4493

NORAD ID: 53533 Int'l Des: 2022-101 Owner: SPXS Country: US Constellation: starlink operational
LEOCIRCULAR

Live-Position

3D-Globus wird geladen...

Über Starlink 4493

Beschreibung wird geladen...

Nächste Überflüge

Passes for default location (London). Set your location on the main map for personalized predictions.

Höhenverlauf

Loading altitude history...

Zweizeiliger Elementsatz

1 53533U 22101G 26123.44600235 .00000005 00000-0 18402-4 0 9997
2 53533 53.2161 188.2970 0001060 84.0409 276.0704 15.08843649204433
Epoch: 3. Mai 2026 • Age: 11 hours

Aktueller Status

Höhe 549.4 km
Geschwindigkeit 7.59 km/s
Subsatellitenpunkt -29.95°S, 148.17°W
Startdatum 19. Aug. 2022
Alter 3.7 years
Typ internet

Technische Details

Klassifizierung Payload
Masse 300.00 kg
Trockenmasse 290.00 kg
Gesamtmasse 300.00 kg
Länge 0.20 m
Durchmesser 2.80 m
Spannweite 9.00 m
Form Box + pan
Hersteller SPXS
Bus-Typ Starlink
Phasenstatus In Orbit
Besitzer/Staat SPXS/US

Most Searched